Regional Weather Roundup
Issued by NWS State College, PA

Home | Current Version | Previous Version | Text Only | Print | Product List | Glossary On
Versions: 1 2 3 4 5 6 7 8 9 10 11 12 13 14 15 16 17 18 19 20 21 22 23 24 25 26 27 28 29 30 31 32 33 34 35 36 37 38 39 40 41 42 43 44 45 46 47 48 49 50
000
ASUS41 KCTP 272303
RWRCTP

REGIONAL WEATHER ROUNDUP
NATIONAL WEATHER SERVICE STATE COLLEGE PA
700 PM EDT THU APR 27 2017

Note: "fair" indicates few or no clouds below 12,000 feet with no
significant weather and/or obstructions to visibility.

* = STATION THAT DOES NOT REPORT PRECIPITATION /E.G. RAIN...SNOW...ETC/
    THUNDER OR FOG.

PAZ002>004-007>009-013>016-020>023-029>032-280000-
WESTERN PENNSYLVANIA

CITY           SKY/WX    TMP DP  RH WIND       PRES   REMARKS
ERIE           TSTM      60  58  92 W9G18     29.67R FOG
MEADVILLE      LGT RAIN  60  58  92 SE3       29.67R
FRANKLIN*      CLOUDY    70  55  60 S18       29.68R
NEW CASTLE     TSTM      64  62  93 SE5       29.67S
BEAVER COUNTY  NOT AVBL
BUTLER*        SUNNY     73  55  53 S18G26    29.68S
PITTSBURGH INT MOSUNNY   74  58  57 S15G28    29.67R
PITTSBURGH     MOSUNNY   75  54  47 S17G28    29.68R
INDIANA*       PTSUNNY   70  59  68 SW8       29.75R
LATROBE        LGT RAIN  68  59  73 S10       29.72R
WASHINGTON CO* MOSUNNY   73  55  53 S10G22    29.72R
$$

PAZ004>006-010>012-017>019-024>028-033>037-041-042-045-046-049>053-280000-
CENTRAL PENNSYLVANIA

CITY           SKY/WX    TMP DP  RH WIND       PRES   REMARKS
BRADFORD       PTSUNNY   73  58  59 S8G25     29.69S
DUBOIS         LGT RAIN  70  57  63 S10G25    29.70R
CLEARFIELD     TSTM      70  63  78 S14G25    29.75R
JOHNSTOWN      LGT RAIN  65  59  81 S6        29.77S
ALTOONA        CLOUDY    74  59  59 SE10      29.74S
STATE COLLEGE  MOSUNNY   72  61  68 SW7       29.75
WILLIAMSPORT   MOSUNNY   78  59  51 SE9       29.70S
SELINSGROVE    MOSUNNY   76  62  62 S13G20    29.73S
FT INDIANTOWN  MOCLDY    76  65  68 S7        29.76S
CAPITAL CITY   MOSUNNY   78  62  57 SE9       29.74F
HARRISBURG     CLOUDY    74  64  71 SE10      29.74F
YORK           PTCLDY    75  65  70 SE8       29.76S
$$

PAZ038>040-043-044-047-048-054-055-060>062-067>071-280000-
EASTERN PENNSYLVANIA

CITY           SKY/WX    TMP DP  RH WIND       PRES   REMARKS
SCRANTON       MOCLDY    76  61  59 MISG      29.76F
MOUNT POCONO   CLOUDY    67  61  81 S10       29.84S
ALLENTOWN      CLOUDY    76  62  62 SE10      29.80R
QUAKERTOWN*    MOCLDY    75  64  69 S8G18     29.81S
READING        PTCLDY    77  65  66 S14G20    29.78R
LANCASTER      MOCLDY    75  67  76 SE7       29.78S
COATESVILLE    PTCLDY    73  64  73 VRB7G13   29.82S
POTTSTOWN      MOCLDY    75  63  66 SE5       29.81S
BLUE BELL      PTCLDY    73  63  68 SE9       29.82S
DOYLESTOWN     PTCLDY    73  64  73 VRB5      29.81R
WILLOW GROVE   NOT AVBL
NORTH PHILA    MOCLDY    73  64  73 SE13      29.84R
PHILADELPHIA   MOCLDY    76  63  64 SE13      29.80S
$$




USA.gov is the U.S. government's official web portal to all federal, state and local government web resources and services.